Погода в Вагенингене

Нидерланды     51°58′30″N   5°40′19″E
темп.,
°C
ветер,
м/с
пор.,
м/с
влажн.,
%
обл.,
%
осадки,
мм/ч
давл.,
гПа
погр.,
м
28 февраля, вс
вс2801:00+3св22890 0.0 104032
04:00+3св22930 0.0 103923
07:00+2св23950 0.0 103966
10:00+6св35830 0.0 1038276
13:00+10всв35630 0.0 1037658
16:00+11всв35600 0.0 1036711
19:00+7св36800 0.0 1036116
22:00+6всв49900 0.0 1036225
1 марта, пн
пн101:00+5всв37950 0.0 1036174
04:00+4всв35960 0.0 1035126
07:00+3всв37950 0.0 1035166
10:00+7в48790 0.0 1034300
13:00+11в47590 0.0 1034582
16:00+12в47590 0.0 1032623
19:00+7всв48760 0.0 1032183
22:00+6в47810 0.0 1032170
2 марта, вт
вт201:00+5в34840 0.0 103281
04:00+4в34840 0.0 103182
07:00+4вюв37850 0.0 1031127
10:00+8юв47720 0.0 1031311
13:00+12юв35620 0.0 1031508
16:00+13юв24600 0.0 1029484
19:00+9юв22750 0.0 103023
22:00+8ююв227532 0.0 103022
3 марта, ср
ср301:00+7ююв127718 0.0 103022
04:00+6ююв12850 0.0 102922
07:00+6ю229239 0.0 102922
10:00+9ююз238238 0.0 1029210
13:00+13юз236629 0.0 1027539
16:00+14зюз346773 0.0 1026738
19:00+10з238479 0.0 102531
22:00+9зсз129598 0.6 102477
4 марта, чт
чт401:00+9юз269699 1.6 1022313
04:00+8зсз3697100 0.2 1020228
07:00+7з2396100 0.4 1019103
10:00+8сз359299 0.1 1018344
13:00+7ссз3685100 0.6 1018383
16:00+8ссз577158 0.0 1018695
19:00+5ссз598478 0.0 1018586
22:00+4ссз5775100 0.0 1020888